Weather in Lakinsk

Russia / Vladimir Oblast     56°01′04″N   39°57′23″E
temp.,
°C
wind,
m/s
gust,
m/s
humid.,
%
clouds,
%
prec.,
mm/h
press.,
hPa
HPBL,
m
27 february, sat
sat2700:00+1wnw61397100 0.1 997789
03:00+1w61297100 0.9 998749
06:00−9nnw71287100 1.0 1000697
09:00−11nnw61289100 1.1 1004667
12:00−10n5888100 0.0 1007616
15:00−9nnw4888100 0.1 1010524
18:00−10nnw359498 0.0 1010104
21:00−11nnw269695 0.1 1013165
28 february, sun
sun2800:00−11nw349589 0.1 1013119
03:00−13nnw239682 0.1 101439
06:00−12nnw239680 0.1 101467
09:00−10n239480 0.2 1015211
12:00−7nnw238989 0.1 1015396
15:00−5n249094 0.1 1016432
18:00−7nne129698 0.1 101762
21:00−8nne229598 0.1 101945
1 march, mon
mon100:00−9ne129696 0.0 102126
03:00−9sw119698 0.1 102321
06:00−8sw2297100 0.1 102374
09:00−7wsw259699 0.1 1023176
12:00−3wsw359391 0.0 1022399
15:00−1wsw589196 0.1 1021594
18:00−1wsw41094100 0.1 1018624
21:000wsw61294100 0.1 1015620
2 march, tue
tue200:00+1w51293100 0.1 1012682
03:00+1w51294100 0.1 1009820
06:00+1wnw61298100 0.5 1006771
09:000nw71393100 0.8 10061085
12:00+1nw7128698 0.1 10071194
15:000nw6118898 0.2 10081134
18:00−1nw51291100 0.1 1008828
21:00−2nw51394100 0.3 1010675
3 march, wed
wed300:00−3nnw5129199 0.1 1010841
03:00−4nw5148991 0.1 1011648
06:00−5nnw6149077 0.1 1013881
09:00−5nnw6138785 0.1 1015681
12:00−3nnw6108635 0.0 1016881
15:00−2nnw6108168 0.1 10171277
18:00−4nw4108794 0.1 1017477
21:00−6wnw399277 0.1 1019228